User: anonymous   Login
Location: Unspecified
(51.0950°N, 12.9690°E)
Time: 16:54:51
(UTC+00:00)
Language:

CZ-6A DEB - Orbit

View from above orbital plane
View from above orbital plane
View from above satellite
View from above satellite

Ground track
Ground track

The orbit data is extracted from the following two-line orbital elements,

1 54572U 22151LY  24280.99407229  .00074091  00000-0  14396-1 0  9997
2 54572  98.6756 311.9574 0093448  25.0534 335.5157 14.59970971 99664
Epoch (UTC): 06 October 2024 23:51:27
Eccentricity: 0.0093448
inclination: 98.6756°
perigee height: 627 km
apogee height: 759 km
right ascension of ascending node: 311.9574°
argument of perigee: 25.0534°
revolutions per day: 14.59970971
mean anomaly at epoch: 335.5157°
orbit number at epoch: 9966

The dashed part of the orbit path shows where the satellite is in the earth's shadow,  

DLR